This is the latest recevied weather packets stored in our database for station/object KC3BHK-2. If no packets are shown the sender has not sent any weather packets the latest 10 day(s).
| Time | Temp. | Humidity | Pressure | Rain* | Wind** | Luminosity | Snow |
|---|---|---|---|---|---|---|---|
| 1777805804 | 3.33° C | - | - | 0 mm | 2.24 m/s, 276° | - | - |
| 1777805499 | 3.89° C | - | - | 0 mm | 1.34 m/s, 300° | - | - |
| 1777805194 | 3.33° C | - | - | 0 mm | 1.34 m/s, 304° | - | - |
| 1777804889 | 3.33° C | - | - | 0 mm | 1.34 m/s, 294° | - | - |
| 1777804583 | 3.89° C | - | - | 0 mm | 1.34 m/s, 287° | - | - |
| 1777804274 | 3.33° C | - | - | 0 mm | 0.45 m/s, 301° | - | - |
| 1777803969 | 2.78° C | - | - | 0 mm | 2.68 m/s, 288° | - | - |
| 1777803664 | 3.89° C | - | - | 0 mm | 1.34 m/s, 336° | - | - |
| 1777803359 | 3.33° C | - | - | 0 mm | 0.45 m/s, 262° | - | - |
| 1777803054 | 3.33° C | - | - | 0 mm | 0.89 m/s, 305° | - | - |
| 1777802748 | 3.33° C | - | - | 0 mm | 1.79 m/s, 316° | - | - |
| 1777802440 | 3.89° C | - | - | 0 mm | 1.79 m/s, 308° | - | - |
| 1777802135 | 2.78° C | - | - | 0 mm | 4.02 m/s, 274° | - | - |
| 1777801830 | 2.22° C | - | - | 0 mm | 0.89 m/s, 305° | - | - |
| 1777801525 | 2.22° C | - | - | 0 mm | 0.89 m/s, 297° | - | - |
| 1777801219 | 2.22° C | - | - | 0 mm | 0 m/s | - | - |
| 1777800914 | 1.67° C | - | - | 0 mm | 0.89 m/s, 301° | - | - |
| 1777800606 | 2.22° C | - | - | 0 mm | 0 m/s | - | - |
| 1777800301 | 2.78° C | - | - | 0 mm | 0 m/s | - | - |
| 1777799996 | 2.78° C | - | - | 0 mm | 1.34 m/s, 288° | - | - |
| 1777799691 | 2.78° C | - | - | 0 mm | 0 m/s | - | - |
| 1777799386 | 3.33° C | - | - | 0 mm | 0 m/s | - | - |
| 1777799081 | 2.78° C | - | - | 0 mm | 0.89 m/s, 278° | - | - |
| 1777798773 | 3.33° C | - | - | 0 mm | 2.24 m/s, 301° | - | - |
| 1777798467 | 3.89° C | - | - | 0 mm | 2.24 m/s, 298° | - | - |
* Rain latest hour (hover to see other rain measurements)
** Current wind speed in m/s (hover to see current wind gust speed)